Weather History for Key West NAF, FL

Change the Weather History Date:

Monday, October 1, 2012

  Actual Average Record
Temperature  
Mean Temperature 82 °F -  
Max Temperature 88 °F 86 °F 92 °F (1958)
Min Temperature 77 °F 77 °F 70 °F (1963)
Cooling Degree Days 18    
Growing Degree Days 32 (Base 50)    
Moisture  
Dew Point 74 °F    
Average Humidity 79    
Maximum Humidity 89    
Minimum Humidity 69    
Precipitation  
Precipitation 0.69 in - - ()
Sea Level Pressure  
Sea Level Pressure 29.81 in    
Wind  
Wind Speed 12 mph (SSW)    
Max Wind Speed 22 mph    
Max Gust Speed 28 mph    
Visibility 8 miles    
Events Thunderstorm    
Averages and records for this station are not official NWS values.
T = Trace of Precipitation, MM = Missing Value Source: NWS Daily Summary

Daily Weather History Graph

Daily Weather History Graph

Search for Another Location

Airport:

Trip Planner

Search our weather history database for the weather conditions in past years. The results will help you decide how hot, cold, wet, or windy it might be!

Date:

Astronomy

Oct. 01, 2012 Rise Set
Actual Time 7:18 AM EDT 7:13 PM EDT
Civil Twilight 6:56 AM EDT 7:35 PM EDT
Nautical Twilight 6:29 AM EDT 8:02 PM EDT
Astronomical Twilight 6:03 AM EDT 8:28 PM EDT
Moon 8:06 PM EDT (10/1) 8:32 AM EDT (10/1)
Length of Visible Light 12h 39m
Length of Day
11h 54m
Full, 98% of the Moon is Illuminated
Oct 1
Full
Oct 8
Last Quarter
Oct 15
New
Oct 21
First Quarter
Oct 29
Full

Hourly Weather History & Observations

Time (EDT) Temp. Heat Index Dew Point Humidity Pressure Visibility Wind Dir Wind Speed Gust Speed Precip Events Conditions
12:53 AM 82.0 °F 88.6 °F 75.0 °F 79% 29.82 in 10.0 mi South 12.7 mph - N/A   Partly Cloudy
1:53 AM 82.0 °F 88.6 °F 75.0 °F 79% 29.81 in 10.0 mi South 9.2 mph - N/A   Clear
2:53 AM 80.1 °F 85.1 °F 75.0 °F 85% 29.79 in 10.0 mi South 9.2 mph - N/A   Mostly Cloudy
3:16 AM 82.4 °F 89.5 °F 75.2 °F 79% 29.79 in 10.0 mi South 13.8 mph - N/A   Mostly Cloudy
3:27 AM 82.4 °F 88.2 °F 73.4 °F 74% 29.79 in 10.0 mi South 11.5 mph - N/A   Scattered Clouds
3:53 AM 82.0 °F 88.6 °F 75.0 °F 79% 29.78 in 10.0 mi South 8.1 mph - N/A   Clear
4:47 AM 80.6 °F 85.4 °F 73.4 °F 79% 29.78 in 2.5 mi South 21.9 mph 27.6 mph 0.13 in   Haze
4:53 AM 79.0 °F - 75.0 °F 88% 29.78 in 1.2 mi SSW 13.8 mph 27.6 mph 0.28 in   Mostly Cloudy
5:00 AM 78.8 °F - 73.4 °F 83% 29.78 in 2.0 mi SSW 15.0 mph - 0.04 in Thunderstorm Mostly Cloudy
5:09 AM 78.8 °F - 73.4 °F 83% 29.78 in 5.0 mi SSW 13.8 mph - 0.06 in Thunderstorm Overcast
5:23 AM 77.0 °F - 73.4 °F 89% 29.79 in 1.8 mi SSW 13.8 mph - 0.24 in Thunderstorm Overcast
5:28 AM 77.0 °F - 73.4 °F 89% 29.79 in 1.0 mi WSW 6.9 mph - 0.36 in Thunderstorm Overcast
5:35 AM 77.0 °F - 73.4 °F 89% 29.78 in 1.8 mi WSW 6.9 mph - 0.40 in   Overcast
5:38 AM 77.0 °F - 73.4 °F 89% 29.78 in 3.0 mi SW 5.8 mph - 0.40 in   Overcast
5:53 AM 77.0 °F - 73.0 °F 88% 29.78 in 10.0 mi SSW 3.5 mph - 0.40 in   Mostly Cloudy
6:13 AM 78.8 °F - 73.4 °F 83% 29.78 in 10.0 mi South 6.9 mph - N/A   Mostly Cloudy
6:53 AM 82.0 °F 88.6 °F 75.0 °F 79% 29.78 in 10.0 mi SSW 12.7 mph - N/A   Mostly Cloudy
7:53 AM 82.0 °F 87.9 °F 73.9 °F 76% 29.80 in 10.0 mi South 10.4 mph - N/A   Mostly Cloudy
8:53 AM 84.0 °F 91.9 °F 75.0 °F 74% 29.82 in 10.0 mi South 13.8 mph - N/A   Mostly Cloudy
9:53 AM 84.0 °F 91.2 °F 73.9 °F 72% 29.83 in 10.0 mi SSW 12.7 mph - N/A   Mostly Cloudy
10:53 AM 84.9 °F 94.1 °F 75.9 °F 74% 29.85 in 10.0 mi South 11.5 mph - N/A   Mostly Cloudy
11:53 AM 87.1 °F 97.3 °F 75.9 °F 69% 29.85 in 10.0 mi South 13.8 mph - N/A   Mostly Cloudy
12:53 PM 84.9 °F 93.3 °F 75.0 °F 72% 29.84 in 10.0 mi South 12.7 mph 20.7 mph N/A   Mostly Cloudy
1:53 PM 88.0 °F 100.2 °F 77.0 °F 70% 29.82 in 10.0 mi South 18.4 mph 23.0 mph N/A   Mostly Cloudy
2:53 PM 87.1 °F 97.3 °F 75.9 °F 69% 29.81 in 10.0 mi South 16.1 mph - N/A   Mostly Cloudy
3:53 PM 82.9 °F 90.2 °F 75.0 °F 77% 29.79 in 10.0 mi SSW 17.3 mph 25.3 mph N/A   Mostly Cloudy
4:53 PM 84.0 °F 91.9 °F 75.0 °F 74% 29.79 in 10.0 mi SSW 16.1 mph - N/A   Mostly Cloudy
5:53 PM 84.0 °F 91.9 °F 75.0 °F 74% 29.80 in 10.0 mi SW 20.7 mph 27.6 mph N/A   Mostly Cloudy
6:53 PM 82.0 °F 86.7 °F 72.0 °F 71% 29.81 in 10.0 mi SW 10.4 mph - N/A   Mostly Cloudy
7:53 PM 79.0 °F - 71.1 °F 77% 29.81 in 10.0 mi SW 12.7 mph - 0.01 in   Mostly Cloudy
8:53 PM 82.0 °F 87.9 °F 73.9 °F 76% 29.83 in 10.0 mi SSW 12.7 mph - N/A   Mostly Cloudy
9:53 PM 82.0 °F 88.6 °F 75.0 °F 79% 29.86 in 10.0 mi SSW 10.4 mph - N/A   Mostly Cloudy
10:44 PM 82.4 °F 89.5 °F 75.2 °F 79% 29.87 in 10.0 mi South 16.1 mph 24.2 mph N/A   Mostly Cloudy
10:53 PM 82.9 °F 90.8 °F 75.9 °F 79% 29.86 in 10.0 mi South 13.8 mph 23.0 mph N/A   Overcast
11:14 PM 80.6 °F 85.4 °F 73.4 °F 79% 29.88 in 10.0 mi WSW 10.4 mph - N/A   Mostly Cloudy
11:22 PM 80.6 °F 86.2 °F 75.2 °F 84% 29.88 in 10.0 mi WSW 10.4 mph - N/A   Mostly Cloudy
11:53 PM 80.1 °F 84.5 °F 73.9 °F 81% 29.88 in 10.0 mi SW 13.8 mph - N/A   Overcast